TimeEDT,TemperatureF,Dew PointF,Humidity,Sea Level PressureIn,VisibilityMPH,Wind Direction,Wind SpeedMPH,Gust SpeedMPH,PrecipitationIn,Events,Conditions,WindDirDegrees,DateUTC
12:53 AM,75.9,73.0,91,30.17,10.0,NNE,6.9,-,N/A,,Mostly Cloudy,30,2013-07-17 04:53:00
1:53 AM,75.0,73.9,96,30.16,10.0,NNE,5.8,-,N/A,,Mostly Cloudy,30,2013-07-17 05:53:00
2:53 AM,75.9,73.9,94,30.14,10.0,NE,6.9,-,N/A,,Mostly Cloudy,40,2013-07-17 06:53:00
3:53 AM,75.9,73.9,94,30.13,10.0,NNE,5.8,-,N/A,,Mostly Cloudy,20,2013-07-17 07:53:00
4:53 AM,75.9,73.9,94,30.13,10.0,NNE,5.8,-,N/A,,Mostly Cloudy,30,2013-07-17 08:53:00
5:53 AM,75.9,73.0,91,30.14,10.0,NE,6.9,-,N/A,,Mostly Cloudy,40,2013-07-17 09:53:00
6:53 AM,75.9,73.9,94,30.15,10.0,NE,6.9,-,N/A,,Scattered Clouds,40,2013-07-17 10:53:00
7:53 AM,79.0,75.0,88,30.17,10.0,NE,9.2,-,N/A,,Mostly Cloudy,50,2013-07-17 11:53:00
8:53 AM,82.0,75.0,79,30.18,10.0,East,11.5,-,N/A,,Mostly Cloudy,80,2013-07-17 12:53:00
9:53 AM,82.9,73.9,74,30.17,10.0,East,11.5,-,N/A,,Scattered Clouds,80,2013-07-17 13:53:00
10:53 AM,84.0,73.9,72,30.16,10.0,ENE,12.7,-,N/A,,Scattered Clouds,70,2013-07-17 14:53:00
11:53 AM,87.1,72.0,61,30.15,10.0,ENE,13.8,20.7,N/A,,Mostly Cloudy,70,2013-07-17 15:53:00
12:53 PM,86.0,72.0,63,30.15,10.0,East,13.8,-,N/A,,Mostly Cloudy,90,2013-07-17 16:53:00
1:53 PM,84.9,73.9,69,30.14,10.0,East,10.4,-,0.01,,Mostly Cloudy,90,2013-07-17 17:53:00
2:49 PM,82.4,73.4,74,30.14,10.0,East,16.1,23.0,0.00,Rain-Thunderstorm,Light Thunderstorms and Rain,100,2013-07-17 18:49:00
2:53 PM,82.0,73.9,76,30.14,10.0,East,13.8,-,0.00,Rain-Thunderstorm,Light Thunderstorms and Rain,100,2013-07-17 18:53:00
3:14 PM,84.2,73.4,70,30.13,10.0,East,8.1,-,0.00,,Mostly Cloudy,100,2013-07-17 19:14:00
3:38 PM,82.4,73.4,74,30.13,10.0,ESE,15.0,-,0.00,Thunderstorm,Thunderstorm,110,2013-07-17 19:38:00
3:53 PM,75.9,71.1,85,30.14,6.0,East,12.7,25.3,0.19,Rain-Thunderstorm,Light Thunderstorms and Rain,90,2013-07-17 19:53:00
4:19 PM,78.8,71.6,78,30.13,10.0,ENE,8.1,-,0.01,,Overcast,70,2013-07-17 20:19:00
4:53 PM,79.0,73.0,82,30.12,10.0,NE,10.4,-,0.01,,Overcast,50,2013-07-17 20:53:00
5:53 PM,81.0,75.0,82,30.12,10.0,NNE,9.2,-,N/A,,Overcast,30,2013-07-17 21:53:00
6:53 PM,80.1,73.9,81,30.10,10.0,NE,9.2,-,N/A,,Mostly Cloudy,50,2013-07-17 22:53:00
7:53 PM,80.1,75.0,85,30.11,10.0,East,8.1,-,N/A,,Mostly Cloudy,80,2013-07-17 23:53:00
8:53 PM,77.0,73.9,90,30.12,10.0,East,4.6,-,N/A,,Overcast,100,2013-07-18 00:53:00
9:53 PM,77.0,73.9,90,30.14,10.0,East,3.5,-,N/A,,Mostly Cloudy,80,2013-07-18 01:53:00
10:53 PM,75.0,72.0,90,30.14,10.0,SE,4.6,-,0.00,,Overcast,130,2013-07-18 02:53:00
11:53 PM,75.0,72.0,90,30.14,10.0,East,3.5,-,0.00,,Mostly Cloudy,100,2013-07-18 03:53:00